[[{"header":{"parameterUnit":"m.s-1","parameterCategory":1,"la1":30.2991,"la2":30.254,"lo1":-89.0895,"lo2":-89.0444,"dy":0.0017,"dx":0.0017,"nx":28,"ny":28,"refTime":"2023-07-22T03:00:00:Z","depth":0,"parameterNumber":2,"parameterNumberName":"U-component_of_WINDS"},"data":[0,0,0,0,0,0,0,0,0,0,0,0,0,0,0,0,0,0,0,0,0,0,0,0,0,0,0,0,0,0,0,0,0,0,0,0,0,0,0,0,0,0,0,0,0,0,0,0,0,0,0,0,0,0,0,0,0,0,1.9959,1.996,0,2.0033,2.0034,2.0034,2.001,2.0009,2.0007,2.0006,2.0083,2.0087,2.009,0,0,0,0,0,0,0,0,0,0,0,0,0,1.9798,1.9801,1.9959,1.996,1.9961,2.0033,2.0034,2.0035,2.0011,2.0009,2.0007,2.0005,2.0082,2.0086,2.009,0,0,0,0,0,0,0,0,0,0,0,0,0,1.987,1.9802,1.9959,1.9957,1.9958,2.0032,2.0034,2.0035,2.0011,2.0009,2.0006,2.0004,2.0081,2.0086,2.0091,2.0172,0,0,2.0107,2.011,0,0,0,0,0,0,0,0,1.9866,1.9876,1.9957,1.9957,1.9958,2.001,2.0005,2.0081,2.0012,1.9991,2.0006,2.0003,2.0061,2.0068,2.0087,2.0175,2.0179,2.0108,2.0111,2.0113,2.0115,0,0,0,0,0,0,0,1.9861,1.9872,1.9988,1.9958,1.9959,1.9954,1.9961,2.002,2.0038,1.9993,1.9991,2.0,2.0061,2.0082,2.0088,2.018,2.0108,2.0112,2.0116,2.0118,2.0338,2.034,0,0,0,0,0,0,1.9855,1.9868,1.9986,1.999,1.9905,1.9958,1.9967,1.9996,2.0038,2.0042,2.0002,1.9999,2.0074,2.0082,2.0091,2.0187,2.0113,2.0118,2.0121,2.0335,2.0338,2.0341,0,0,0,0,0,0,1.9852,1.9866,1.9983,1.9929,1.9943,1.9964,1.9996,1.9998,2.0019,2.0045,2.0048,2.002,2.0072,2.0084,2.0151,2.0189,2.0121,2.0125,2.0332,2.0336,2.034,2.038,0,0,0,0,0,0,1.9847,1.9865,1.9895,1.993,1.9946,2.0041,1.9999,2.0002,2.0028,2.0025,2.0062,2.0066,2.0071,2.0144,2.0157,2.0195,2.013,2.0328,2.0334,2.0338,2.0376,2.0385,2.0393,0,0,0,0,0,1.9842,1.9904,1.9897,1.9911,1.9985,2.0044,2.0053,2.0057,2.0031,2.0062,2.0079,2.0065,2.0184,2.0151,2.0165,2.0206,2.0326,2.0332,2.0338,2.0372,2.0383,2.0393,0,0,0,0,0,0,1.9874,1.9909,1.9901,1.9976,2.0007,2.0039,2.0078,2.0069,2.0109,2.0103,2.0107,2.0116,2.0186,2.0203,2.0166,2.0286,2.0251,2.026,2.0272,2.0283,2.0292,2.0285,2.0134,0,0,0,0,0,1.9889,1.9934,1.9962,2.0026,2.0042,2.0058,2.0084,2.0084,2.0116,2.0129,2.0151,2.0183,2.0228,2.0257,2.0299,2.0379,2.0386,2.0415,2.0423,2.0431,2.0438,2.048,2.0493,2.0361,2.0361,2.0361,0,0,1.9922,1.9947,1.9975,2.0033,2.0057,2.0103,2.0069,2.0119,2.0153,2.0137,2.0202,2.0219,2.0256,2.033,2.0363,2.0346,2.0476,2.0438,2.0444,2.0447,2.0488,2.05,2.0511,2.0365,2.0364,2.0363,0,0,2.0005,2.0029,2.0084,2.0109,2.0146,2.0156,2.017,2.0204,2.0214,2.0279,2.0268,2.0309,2.0386,2.0412,2.0435,2.053,2.0518,2.0544,2.0589,2.0631,2.0641,2.065,2.0682,2.0694,2.0552,2.0552,2.0552,0,2.0042,2.011,2.0114,2.0165,2.0191,2.0179,2.0235,2.0259,2.0308,2.0326,2.0307,2.0402,2.0426,2.0505,2.0528,2.0549,2.0563,2.0538,2.0639,2.0649,2.0657,2.0688,2.07,2.0554,2.0554,2.0554,2.0553,0,2.0152,2.02,2.0241,2.0287,2.0318,2.0372,2.0384,2.0415,2.0414,2.0426,2.0492,2.0521,2.0568,2.0588,2.0587,2.0667,2.0655,2.0638,2.0602,2.0672,2.0701,2.0713,2.0558,2.0557,2.0556,2.0556,0,0,2.0255,2.0304,2.0319,2.034,2.038,2.0417,2.0471,2.0517,2.0543,2.0578,2.0622,2.0688,2.0671,2.0698,2.0701,2.0737,2.0808,2.0715,2.0716,2.073,2.0897,2.0908,2.0922,2.0802,2.0804,2.0806,2.0893,0,2.034,2.0433,2.0438,2.0522,2.0566,2.0556,2.0603,2.0633,2.0646,2.0686,2.0701,2.0747,2.0723,2.0739,2.0775,2.0792,2.0842,2.0786,2.0842,2.0844,2.0831,2.0937,2.0949,2.1029,2.0905,2.0907,2.0908,0,2.0451,2.0488,2.0576,2.061,2.0629,2.067,2.0713,2.0752,2.0786,2.0793,2.0823,2.082,2.0875,2.084,2.0915,2.0877,2.0901,2.0913,2.0916,2.092,2.0879,2.0941,2.1056,2.1067,2.0926,2.0925,2.0923,0,2.0514,2.0587,2.0649,2.0668,2.071,2.0739,2.0758,2.0789,2.0817,2.0855,2.0872,2.0917,2.094,2.0975,2.0984,2.0958,2.1059,2.1024,2.1066,2.1066,2.1086,2.1084,2.1203,2.1105,2.1105,2.1105,2.1104,0,2.0607,2.0661,2.0678,2.0716,2.0777,2.0784,2.0843,2.086,2.0889,2.093,2.0925,2.0964,2.0975,2.1016,2.1025,2.1085,2.1096,2.1103,2.1104,2.1102,2.1101,2.1116,2.111,2.1108,2.1107,2.1107,2.1106,0,2.0687,2.0701,2.0767,2.0802,2.0812,2.0855,2.0884,2.0921,2.0934,2.0986,2.0999,2.102,2.1068,2.1082,2.114,2.1145,2.1216,2.1213,2.1204,2.1203,2.1243,2.1238,2.1374,2.1392,2.1284,2.1285,2.1286,0,2.0743,2.0785,2.0824,2.0851,2.0871,2.0915,2.0942,2.0952,2.0981,2.1023,2.1055,2.1102,2.114,2.1218,2.1238,2.1283,2.1279,2.1324,2.1286,2.1282,2.1278,2.1274,2.1278,2.133,2.1332,2.1333,2.1333,0,2.0842,2.0847,2.0887,2.0931,2.0964,2.0999,2.1032,2.1054,2.1068,2.1102,2.115,2.118,2.1239,2.1286,2.1331,2.1351,2.1344,2.1346,2.1357,2.1354,2.1346,2.1349,2.1221,2.1342,2.1341,2.134,2.134,2.1339,2.0911,2.0947,2.0979,2.1025,2.1051,2.1082,2.1118,2.1136,2.1177,2.1225,2.1229,2.1281,2.1315,2.1375,2.1397,2.1438,2.1425,2.1442,2.1446,2.145,2.1452,2.1342,2.1447,2.1447,2.1447,2.1446,2.1446,0,2.1007,2.1028,2.107,2.1116,2.1152,2.1144,2.118,2.121,2.1256,2.1288,2.1326,2.1382,2.1428,2.1453,2.1498,2.1527,2.1525,2.1538,2.1535,2.1539,2.1462,2.1447,2.1539,2.1539,2.1539,2.1539,2.1539,2.1539,2.1061,2.1121,2.1131,2.1204,2.1224,2.1276,2.1297,2.1326,2.1351,2.1414,2.1452,2.1468,2.1497,2.1545,2.1586,2.1592,2.1608,2.1623,2.1627,2.1554,2.1545,2.1536,2.1521,2.1627,2.1627,2.17,2.1701,2.1702]},{"header":{"parameterUnit":"m.s-1","parameterCategory":1,"la1":30.2991,"la2":30.254,"lo1":-89.0895,"lo2":-89.0444,"dy":0.0017,"dx":0.0017,"nx":28,"ny":28,"refTime":"2023-07-22T03:00:00:Z","depth":0,"parameterNumber":3,"parameterNumberName":"V-component_of_WINDS"},"data":[0,0,0,0,0,0,0,0,0,0,0,0,0,0,0,0,0,0,0,0,0,0,0,0,0,0,0,0,0,0,0,0,0,0,0,0,0,0,0,0,0,0,0,0,0,0,0,0,0,0,0,0,0,0,0,0,0,0,4.0798,4.0798,0,4.0807,4.0807,4.0807,4.0762,4.076,4.0759,4.0758,4.0764,4.0765,4.0766,0,0,0,0,0,0,0,0,0,0,0,0,0,4.0735,4.0737,4.0798,4.0798,4.0798,4.0807,4.0807,4.0807,4.0762,4.076,4.0759,4.0757,4.0763,4.0765,4.0766,0,0,0,0,0,0,0,0,0,0,0,0,0,4.0755,4.0737,4.0798,4.0777,4.0775,4.0807,4.0807,4.0807,4.0762,4.076,4.0758,4.0756,4.0763,4.0765,4.0767,4.0818,0,0,4.0773,4.0774,0,0,0,0,0,0,0,0,4.0754,4.0758,4.078,4.0778,4.0776,4.0781,4.0787,4.0811,4.0763,4.0767,4.0758,4.0755,4.0771,4.0772,4.0778,4.0819,4.0819,4.0773,4.0774,4.0775,4.0776,0,0,0,0,0,0,0,4.0753,4.0757,4.0801,4.078,4.0778,4.0765,4.0765,4.0791,4.0779,4.0766,4.0763,4.0765,4.0769,4.0776,4.0778,4.0819,4.0773,4.0775,4.0776,4.0777,4.0896,4.0898,0,0,0,0,0,0,4.0755,4.0756,4.0801,4.0801,4.076,4.0767,4.0768,4.0781,4.0779,4.0777,4.0767,4.0763,4.0773,4.0775,4.0778,4.0834,4.0775,4.0777,4.0778,4.0894,4.0897,4.0899,0,0,0,0,0,0,4.0754,4.0759,4.08,4.0778,4.0782,4.0771,4.0786,4.0783,4.0789,4.0779,4.0777,4.0776,4.0772,4.0775,4.0807,4.0833,4.0778,4.078,4.0892,4.0895,4.0898,4.0949,0,0,0,0,0,0,4.0752,4.0759,4.0781,4.0779,4.0784,4.0832,4.0788,4.0784,4.0793,4.0788,4.0787,4.0785,4.0771,4.0805,4.0809,4.0835,4.0782,4.089,4.0893,4.0897,4.0945,4.0953,4.0961,0,0,0,0,0,4.075,4.0795,4.0782,4.0788,4.081,4.0834,4.0836,4.082,4.0796,4.0815,4.0808,4.0785,4.0831,4.0808,4.0813,4.084,4.0888,4.0892,4.0897,4.0941,4.0952,4.096,0,0,0,0,0,0,4.08,4.0795,4.078,4.0826,4.0831,4.0826,4.0851,4.0832,4.0843,4.0838,4.0816,4.0816,4.0851,4.0849,4.0825,4.0887,4.0855,4.086,4.0887,4.0897,4.0904,4.0903,4.0783,0,0,0,0,0,4.0817,4.0838,4.0832,4.0873,4.0876,4.0863,4.0873,4.0859,4.0863,4.0864,4.086,4.0863,4.0877,4.0887,4.09,4.0945,4.0942,4.0966,4.0973,4.098,4.0984,4.1003,4.1012,4.0913,4.0913,4.0913,0,0,4.0851,4.085,4.0865,4.0882,4.0885,4.0904,4.0865,4.0889,4.0902,4.0868,4.0897,4.0894,4.0896,4.0933,4.095,4.0933,4.1011,4.0986,4.0991,4.0991,4.1008,4.1017,4.1026,4.0916,4.0916,4.0915,0,0,4.0922,4.0926,4.0958,4.096,4.0964,4.0954,4.0962,4.096,4.0956,4.0986,4.0958,4.0974,4.1,4.1001,4.1005,4.1073,4.105,4.1078,4.1118,4.1136,4.1144,4.115,4.117,4.1178,4.1083,4.1083,4.1083,0,4.0964,4.0994,4.0977,4.1001,4.1007,4.0977,4.1007,4.101,4.1018,4.1022,4.1003,4.1033,4.1032,4.1067,4.1083,4.1089,4.1094,4.1077,4.1144,4.1151,4.1157,4.1176,4.1184,4.1086,4.1085,4.1085,4.1085,0,4.1042,4.1063,4.1089,4.1096,4.1105,4.1133,4.1117,4.1128,4.1114,4.1105,4.1133,4.1131,4.1141,4.1149,4.1135,4.1181,4.117,4.1149,4.1115,4.1169,4.1186,4.1194,4.109,4.1089,4.1088,4.1087,0,0,4.1146,4.1141,4.115,4.115,4.115,4.1165,4.119,4.12,4.1208,4.1214,4.1231,4.1252,4.1231,4.1236,4.1222,4.1238,4.1287,4.1214,4.1214,4.1224,4.1331,4.1345,4.1354,4.1273,4.1274,4.1275,4.133,0,4.1212,4.1254,4.1237,4.128,4.1296,4.1266,4.1287,4.1287,4.128,4.1291,4.1282,4.1296,4.127,4.1272,4.1287,4.1278,4.1307,4.1274,4.1285,4.1286,4.1283,4.1364,4.1379,4.1431,4.1337,4.1338,4.1339,0,4.1295,4.1302,4.1346,4.1339,4.1345,4.1365,4.137,4.1383,4.1381,4.1374,4.1378,4.1359,4.1379,4.1347,4.1373,4.135,4.1354,4.135,4.1351,4.1349,4.1314,4.136,4.1448,4.1454,4.135,4.1349,4.1349,0,4.136,4.1382,4.1409,4.1411,4.1405,4.1418,4.1416,4.1413,4.1419,4.1424,4.1426,4.1433,4.1436,4.1441,4.1423,4.1403,4.145,4.1418,4.1441,4.1442,4.1451,4.145,4.1536,4.1459,4.1459,4.1459,4.1459,0,4.1434,4.1461,4.1438,4.1455,4.1482,4.1462,4.149,4.1484,4.1481,4.1494,4.147,4.1482,4.146,4.1469,4.1455,4.1476,4.1479,4.1471,4.1467,4.1472,4.1472,4.1472,4.1466,4.1461,4.146,4.146,4.146,0,4.1511,4.1497,4.1524,4.1516,4.1514,4.1534,4.1526,4.1539,4.1529,4.1546,4.1548,4.1532,4.1542,4.1525,4.1533,4.1524,4.1552,4.1543,4.1552,4.1548,4.1571,4.1568,4.1658,4.1667,4.1587,4.1588,4.1589,0,4.1557,4.1577,4.1569,4.1576,4.1575,4.1587,4.1592,4.1572,4.1578,4.1576,4.1589,4.1597,4.1601,4.1618,4.1605,4.161,4.1599,4.1631,4.16,4.1603,4.1595,4.1593,4.1593,4.1636,4.1637,4.1638,4.1638,0,4.1639,4.163,4.1639,4.1644,4.1651,4.1654,4.1655,4.1662,4.1641,4.1648,4.1657,4.1661,4.1668,4.1674,4.1676,4.1671,4.165,4.1648,4.1653,4.1657,4.166,4.1655,4.1565,4.1646,4.1645,4.1645,4.1644,4.1644,4.1699,4.1713,4.1709,4.1718,4.1717,4.1718,4.1729,4.172,4.1727,4.1731,4.1719,4.173,4.1725,4.1725,4.1722,4.1729,4.1715,4.1723,4.1725,4.1726,4.1728,4.1661,4.173,4.173,4.1729,4.1729,4.1729,0,4.1776,4.1771,4.178,4.1782,4.1788,4.1769,4.1768,4.1774,4.1785,4.1782,4.1787,4.1795,4.18,4.1788,4.1791,4.1799,4.1789,4.18,4.1797,4.1796,4.1743,4.1736,4.1807,4.1807,4.1807,4.1807,4.1807,4.1807,4.1817,4.1838,4.1829,4.1848,4.1843,4.1853,4.1854,4.1854,4.1851,4.1862,4.1866,4.1858,4.1851,4.1852,4.1855,4.1851,4.1852,4.1866,4.1858,4.1808,4.18,4.1793,4.1786,4.1867,4.1867,4.191,4.191,4.1911]}]]